[[{"header":{"parameterUnit":"m.s-1","parameterCategory":1,"la1":30.2991,"la2":30.254,"lo1":-89.0895,"lo2":-89.0444,"dy":0.0017,"dx":0.0017,"nx":28,"ny":28,"refTime":"2024-08-27T21:00:00:Z","depth":0,"parameterNumber":2,"parameterNumberName":"U-component_of_WINDS"},"data":[0,0,0,0,0,0,0,0,0,0,0,0,0,0,0,0,0,0,0,0,0,0,0,0,0,0,0,0,0,0,0,0,0,0,0,0,0,0,0,0,0,0,0,0,0,0,0,0,0,0,0,0,0,0,0,0,0,0,-1.6597,-1.6597,0,-1.659,-1.659,-1.659,-1.6574,-1.6574,-1.6573,-1.6573,-1.6565,-1.6566,-1.6566,0,0,0,0,0,0,0,0,0,0,0,0,0,-1.6596,-1.6596,-1.6597,-1.6597,-1.6597,-1.659,-1.659,-1.659,-1.6574,-1.6574,-1.6573,-1.6573,-1.6565,-1.6566,-1.6566,0,0,0,0,0,0,0,0,0,0,0,0,0,-1.6593,-1.6596,-1.6597,-1.6588,-1.6587,-1.659,-1.659,-1.659,-1.6574,-1.6574,-1.6573,-1.6573,-1.6565,-1.6566,-1.6566,-1.6577,0,0,-1.6566,-1.6566,0,0,0,0,0,0,0,0,-1.6594,-1.6593,-1.6589,-1.6589,-1.6588,-1.6582,-1.6587,-1.6586,-1.6574,-1.6579,-1.6573,-1.6572,-1.6571,-1.6571,-1.6571,-1.6576,-1.6576,-1.6566,-1.6566,-1.6566,-1.6566,0,0,0,0,0,0,0,-1.6594,-1.6594,-1.6594,-1.6589,-1.6588,-1.6584,-1.6583,-1.6587,-1.6578,-1.6579,-1.6577,-1.6577,-1.6571,-1.6571,-1.6571,-1.6576,-1.6566,-1.6566,-1.6566,-1.6567,-1.6591,-1.6591,0,0,0,0,0,0,-1.6595,-1.6594,-1.6594,-1.6594,-1.6589,-1.6585,-1.6584,-1.6585,-1.6578,-1.6577,-1.6577,-1.6576,-1.6571,-1.657,-1.657,-1.6583,-1.6566,-1.6567,-1.6567,-1.659,-1.6591,-1.6592,0,0,0,0,0,0,-1.6595,-1.6595,-1.6595,-1.6594,-1.6593,-1.6585,-1.6586,-1.6585,-1.6585,-1.6577,-1.6575,-1.6579,-1.657,-1.657,-1.6575,-1.6583,-1.6567,-1.6567,-1.659,-1.6591,-1.6591,-1.6609,0,0,0,0,0,0,-1.6595,-1.6596,-1.66,-1.6594,-1.6593,-1.66,-1.6587,-1.6585,-1.6585,-1.6583,-1.6578,-1.6577,-1.657,-1.6575,-1.6576,-1.6583,-1.6567,-1.6589,-1.659,-1.6591,-1.6608,-1.661,-1.6612,0,0,0,0,0,-1.6595,-1.6605,-1.66,-1.66,-1.6598,-1.66,-1.66,-1.6592,-1.6586,-1.659,-1.6585,-1.6577,-1.6582,-1.6576,-1.6576,-1.6583,-1.6588,-1.659,-1.6591,-1.6606,-1.661,-1.6612,0,0,0,0,0,0,-1.6611,-1.6604,-1.6598,-1.6606,-1.6604,-1.6598,-1.6603,-1.6596,-1.6596,-1.6594,-1.6584,-1.6583,-1.659,-1.6587,-1.6581,-1.6594,-1.6584,-1.6585,-1.6596,-1.6599,-1.6601,-1.6601,-1.6567,0,0,0,0,0,-1.6615,-1.6618,-1.6611,-1.6619,-1.6618,-1.6611,-1.6611,-1.6606,-1.6603,-1.6602,-1.6598,-1.6595,-1.6596,-1.6597,-1.6598,-1.6607,-1.6606,-1.6612,-1.6615,-1.6617,-1.6618,-1.6623,-1.6626,-1.6596,-1.6596,-1.6596,0,0,-1.6624,-1.6621,-1.6623,-1.6622,-1.6619,-1.6622,-1.661,-1.6613,-1.6615,-1.6602,-1.6607,-1.6604,-1.6601,-1.6609,-1.6612,-1.6606,-1.6626,-1.6618,-1.662,-1.662,-1.6625,-1.6628,-1.663,-1.6596,-1.6596,-1.6596,0,0,-1.6642,-1.6639,-1.6645,-1.6644,-1.6641,-1.6636,-1.6638,-1.6632,-1.663,-1.6635,-1.6626,-1.6628,-1.663,-1.6628,-1.6628,-1.6646,-1.6638,-1.6646,-1.6659,-1.6664,-1.6666,-1.6668,-1.6675,-1.6678,-1.6648,-1.6648,-1.6648,0,-1.6653,-1.6657,-1.6649,-1.6654,-1.6654,-1.6643,-1.6649,-1.6648,-1.6645,-1.6645,-1.6639,-1.6642,-1.6639,-1.6647,-1.6651,-1.6651,-1.6653,-1.6647,-1.6667,-1.6669,-1.667,-1.6677,-1.6679,-1.6649,-1.6648,-1.6648,-1.6648,0,-1.6672,-1.6675,-1.668,-1.6678,-1.6679,-1.6684,-1.6677,-1.6679,-1.6673,-1.6669,-1.6674,-1.6671,-1.6671,-1.6672,-1.6666,-1.6679,-1.6676,-1.6668,-1.6658,-1.6674,-1.668,-1.6683,-1.665,-1.665,-1.6649,-1.6649,0,0,-1.6698,-1.6693,-1.6695,-1.6694,-1.6691,-1.6693,-1.6698,-1.6698,-1.67,-1.6698,-1.6702,-1.6705,-1.6698,-1.6698,-1.6692,-1.6697,-1.6712,-1.6689,-1.6689,-1.6694,-1.6726,-1.6731,-1.6734,-1.6707,-1.6708,-1.6708,-1.6726,0,-1.6715,-1.6723,-1.6717,-1.6726,-1.6729,-1.6719,-1.6724,-1.6722,-1.6718,-1.672,-1.6716,-1.6718,-1.671,-1.6709,-1.6713,-1.6709,-1.6718,-1.6708,-1.6711,-1.6711,-1.6712,-1.6737,-1.6743,-1.676,-1.6728,-1.6729,-1.6729,0,-1.6735,-1.6736,-1.6746,-1.6742,-1.6743,-1.6747,-1.6747,-1.6749,-1.6747,-1.6745,-1.6745,-1.6738,-1.6743,-1.6733,-1.6739,-1.6732,-1.6733,-1.6731,-1.6732,-1.6732,-1.6721,-1.6738,-1.6765,-1.6768,-1.6732,-1.6732,-1.6732,0,-1.6754,-1.6757,-1.6764,-1.6763,-1.6759,-1.6763,-1.6761,-1.6759,-1.6759,-1.676,-1.676,-1.6761,-1.6761,-1.6762,-1.6755,-1.6749,-1.6763,-1.6752,-1.6761,-1.6761,-1.6764,-1.6764,-1.6792,-1.6765,-1.6765,-1.6765,-1.6765,0,-1.6774,-1.678,-1.6772,-1.6776,-1.6783,-1.6776,-1.6783,-1.678,-1.6779,-1.6782,-1.6773,-1.6777,-1.6768,-1.6771,-1.6766,-1.6772,-1.6773,-1.677,-1.6769,-1.6771,-1.6772,-1.6772,-1.677,-1.6765,-1.6765,-1.6765,-1.6765,0,-1.6796,-1.679,-1.6797,-1.6793,-1.6792,-1.6798,-1.6794,-1.6798,-1.6794,-1.6799,-1.6799,-1.6793,-1.6796,-1.679,-1.6791,-1.6788,-1.6797,-1.6794,-1.6798,-1.6797,-1.6806,-1.6805,-1.6835,-1.6839,-1.6809,-1.6809,-1.681,0,-1.6808,-1.6813,-1.681,-1.6812,-1.6811,-1.6814,-1.6815,-1.6808,-1.681,-1.6809,-1.6812,-1.6814,-1.6816,-1.682,-1.6816,-1.6817,-1.6814,-1.6825,-1.6814,-1.6816,-1.6815,-1.6814,-1.6815,-1.6827,-1.6827,-1.6827,-1.6828,0,-1.6832,-1.6829,-1.6831,-1.6833,-1.6834,-1.6835,-1.6835,-1.6837,-1.683,-1.6832,-1.6835,-1.6836,-1.6838,-1.684,-1.684,-1.6839,-1.6832,-1.6831,-1.6833,-1.6835,-1.6838,-1.6837,-1.6804,-1.683,-1.683,-1.683,-1.683,-1.6829,-1.6849,-1.6854,-1.6852,-1.6855,-1.6855,-1.6855,-1.6858,-1.6855,-1.6858,-1.6859,-1.6855,-1.6859,-1.6858,-1.6858,-1.6857,-1.686,-1.6855,-1.6858,-1.6859,-1.686,-1.6861,-1.6837,-1.686,-1.686,-1.686,-1.686,-1.686,0,-1.6872,-1.6871,-1.6874,-1.6875,-1.6877,-1.6871,-1.6871,-1.6873,-1.6877,-1.6876,-1.6878,-1.6882,-1.6884,-1.688,-1.6882,-1.6885,-1.6882,-1.6886,-1.6886,-1.6886,-1.6865,-1.6863,-1.6889,-1.6889,-1.6888,-1.6888,-1.6888,-1.6888,-1.6885,-1.6892,-1.6889,-1.6896,-1.6895,-1.6899,-1.6899,-1.69,-1.6899,-1.6904,-1.6906,-1.6904,-1.6902,-1.6904,-1.6906,-1.6905,-1.6906,-1.6911,-1.6909,-1.689,-1.6887,-1.6884,-1.6882,-1.6911,-1.6911,-1.6929,-1.6929,-1.6929]},{"header":{"parameterUnit":"m.s-1","parameterCategory":1,"la1":30.2991,"la2":30.254,"lo1":-89.0895,"lo2":-89.0444,"dy":0.0017,"dx":0.0017,"nx":28,"ny":28,"refTime":"2024-08-27T21:00:00:Z","depth":0,"parameterNumber":3,"parameterNumberName":"V-component_of_WINDS"},"data":[0,0,0,0,0,0,0,0,0,0,0,0,0,0,0,0,0,0,0,0,0,0,0,0,0,0,0,0,0,0,0,0,0,0,0,0,0,0,0,0,0,0,0,0,0,0,0,0,0,0,0,0,0,0,0,0,0,0,-3.7007,-3.7007,0,-3.7015,-3.7015,-3.7015,-3.6985,-3.6984,-3.6984,-3.6983,-3.6989,-3.699,-3.6991,0,0,0,0,0,0,0,0,0,0,0,0,0,-3.6965,-3.6966,-3.7007,-3.7007,-3.7007,-3.7015,-3.7015,-3.7015,-3.6986,-3.6984,-3.6983,-3.6982,-3.6988,-3.6989,-3.6991,0,0,0,0,0,0,0,0,0,0,0,0,0,-3.6979,-3.6966,-3.7007,-3.6993,-3.6992,-3.7015,-3.7015,-3.7015,-3.6986,-3.6984,-3.6983,-3.6982,-3.6988,-3.6989,-3.6991,-3.7026,0,0,-3.6995,-3.6996,0,0,0,0,0,0,0,0,-3.6978,-3.698,-3.6995,-3.6994,-3.6993,-3.6998,-3.7002,-3.7019,-3.6986,-3.6988,-3.6983,-3.6981,-3.6993,-3.6994,-3.6998,-3.7027,-3.7027,-3.6995,-3.6996,-3.6997,-3.6997,0,0,0,0,0,0,0,-3.6977,-3.698,-3.701,-3.6996,-3.6994,-3.6987,-3.6987,-3.7005,-3.6998,-3.6988,-3.6986,-3.6987,-3.6992,-3.6997,-3.6998,-3.7027,-3.6995,-3.6997,-3.6998,-3.6998,-3.7087,-3.7088,0,0,0,0,0,0,-3.6978,-3.6979,-3.701,-3.701,-3.6982,-3.6988,-3.6989,-3.6998,-3.6997,-3.6996,-3.6988,-3.6986,-3.6995,-3.6996,-3.6998,-3.7041,-3.6997,-3.6998,-3.6999,-3.7085,-3.7087,-3.7089,0,0,0,0,0,0,-3.6977,-3.6981,-3.701,-3.6994,-3.6997,-3.6991,-3.7001,-3.6999,-3.7003,-3.6998,-3.6996,-3.6995,-3.6994,-3.6996,-3.702,-3.7041,-3.6999,-3.7,-3.7084,-3.7086,-3.7088,-3.7126,0,0,0,0,0,0,-3.6976,-3.6981,-3.6995,-3.6995,-3.6998,-3.7032,-3.7002,-3.7,-3.7006,-3.7003,-3.7003,-3.7002,-3.6993,-3.7018,-3.7022,-3.7042,-3.7001,-3.7082,-3.7085,-3.7087,-3.7123,-3.713,-3.7135,0,0,0,0,0,-3.6975,-3.7004,-3.6996,-3.6999,-3.7015,-3.7033,-3.7035,-3.7025,-3.7008,-3.7022,-3.7018,-3.7002,-3.7038,-3.7021,-3.7024,-3.7046,-3.708,-3.7084,-3.7087,-3.7121,-3.7128,-3.7135,0,0,0,0,0,0,-3.7005,-3.7004,-3.6994,-3.7025,-3.703,-3.7028,-3.7045,-3.7033,-3.7042,-3.7038,-3.7024,-3.7024,-3.7051,-3.7051,-3.7032,-3.7081,-3.7056,-3.706,-3.708,-3.7088,-3.7094,-3.7093,-3.7003,0,0,0,0,0,-3.7015,-3.7031,-3.7029,-3.7055,-3.7059,-3.7052,-3.7059,-3.7051,-3.7055,-3.7056,-3.7054,-3.7059,-3.7071,-3.7079,-3.709,-3.7123,-3.7123,-3.7139,-3.7145,-3.715,-3.7154,-3.7173,-3.7181,-3.71,-3.71,-3.71,0,0,-3.7036,-3.7038,-3.7048,-3.7062,-3.7064,-3.7081,-3.7053,-3.7071,-3.7083,-3.7059,-3.7082,-3.7081,-3.7085,-3.7114,-3.7127,-3.7114,-3.7177,-3.7154,-3.7158,-3.716,-3.7177,-3.7185,-3.7192,-3.7102,-3.7102,-3.7101,0,0,-3.7084,-3.7086,-3.7109,-3.7113,-3.7119,-3.7114,-3.712,-3.7121,-3.712,-3.7143,-3.7126,-3.714,-3.7161,-3.7165,-3.7169,-3.722,-3.7206,-3.7224,-3.7255,-3.7274,-3.728,-3.7286,-3.7305,-3.7312,-3.7228,-3.7228,-3.7228,0,-3.7109,-3.7133,-3.7123,-3.7143,-3.715,-3.713,-3.7154,-3.7158,-3.7166,-3.7171,-3.7157,-3.7185,-3.7185,-3.7216,-3.7229,-3.7233,-3.7239,-3.7224,-3.728,-3.7286,-3.7291,-3.7309,-3.7316,-3.723,-3.723,-3.723,-3.7229,0,-3.7165,-3.7182,-3.7201,-3.7211,-3.722,-3.7242,-3.7234,-3.7244,-3.7236,-3.7233,-3.7258,-3.7258,-3.727,-3.7276,-3.7267,-3.7306,-3.7299,-3.7283,-3.7258,-3.7301,-3.7318,-3.7325,-3.7233,-3.7233,-3.7232,-3.7231,0,0,-3.723,-3.7236,-3.7243,-3.7249,-3.7254,-3.7267,-3.7288,-3.7301,-3.731,-3.7316,-3.7334,-3.7354,-3.734,-3.7345,-3.7336,-3.7353,-3.7395,-3.7335,-3.7335,-3.7347,-3.7439,-3.7452,-3.746,-3.7385,-3.7387,-3.7388,-3.744,0,-3.7277,-3.7315,-3.7307,-3.7344,-3.7361,-3.7343,-3.7362,-3.7367,-3.7365,-3.7379,-3.7376,-3.739,-3.737,-3.7374,-3.7389,-3.7386,-3.7413,-3.7382,-3.7402,-3.7403,-3.7403,-3.7469,-3.7482,-3.7531,-3.7446,-3.7447,-3.7448,0,-3.7337,-3.7349,-3.7388,-3.7393,-3.7399,-3.7416,-3.7428,-3.7441,-3.7447,-3.7444,-3.7452,-3.744,-3.7462,-3.7436,-3.7466,-3.7445,-3.7453,-3.7453,-3.7454,-3.7456,-3.7429,-3.7474,-3.7546,-3.7554,-3.7458,-3.7457,-3.7456,0,-3.7383,-3.7407,-3.7435,-3.744,-3.7445,-3.7458,-3.7461,-3.7465,-3.7474,-3.7484,-3.749,-3.7502,-3.7508,-3.7518,-3.751,-3.7492,-3.7541,-3.7515,-3.754,-3.754,-3.7551,-3.7551,-3.7627,-3.7555,-3.7555,-3.7554,-3.7554,0,-3.7437,-3.7462,-3.7456,-3.7472,-3.75,-3.7491,-3.7518,-3.7519,-3.7524,-3.754,-3.7525,-3.754,-3.7529,-3.7543,-3.7537,-3.7563,-3.7566,-3.7565,-3.7563,-3.7567,-3.7567,-3.7572,-3.7569,-3.7556,-3.7556,-3.7556,-3.7555,0,-3.7493,-3.7489,-3.7518,-3.7522,-3.7524,-3.7544,-3.7547,-3.7563,-3.756,-3.7582,-3.7586,-3.7582,-3.7598,-3.7592,-3.7609,-3.7605,-3.7638,-3.7632,-3.7637,-3.7636,-3.7662,-3.766,-3.7744,-3.7755,-3.7675,-3.7676,-3.7676,0,-3.7528,-3.7547,-3.7554,-3.7565,-3.757,-3.7587,-3.7596,-3.7588,-3.7598,-3.7608,-3.7622,-3.7638,-3.765,-3.7678,-3.7676,-3.7689,-3.7683,-3.7712,-3.7685,-3.7689,-3.7685,-3.7684,-3.7687,-3.7717,-3.7718,-3.7719,-3.772,0,-3.7591,-3.7589,-3.7604,-3.762,-3.7632,-3.7643,-3.7652,-3.7662,-3.7654,-3.7667,-3.7685,-3.7694,-3.7713,-3.7729,-3.7741,-3.7743,-3.7731,-3.7728,-3.7735,-3.7739,-3.7742,-3.7743,-3.7653,-3.7726,-3.7726,-3.7725,-3.7725,-3.7725,-3.7638,-3.7656,-3.7664,-3.7682,-3.7689,-3.7699,-3.7714,-3.7715,-3.773,-3.7746,-3.7739,-3.776,-3.7767,-3.7782,-3.7786,-3.7802,-3.7791,-3.78,-3.7803,-3.7806,-3.781,-3.7739,-3.7804,-3.7804,-3.7804,-3.7804,-3.7803,0,-3.7702,-3.7708,-3.7724,-3.7739,-3.7754,-3.7742,-3.7752,-3.7765,-3.7784,-3.7791,-3.7805,-3.7826,-3.7842,-3.7842,-3.7857,-3.7869,-3.7864,-3.7874,-3.7873,-3.7874,-3.7818,-3.7812,-3.7878,-3.7878,-3.7878,-3.7878,-3.7878,-3.7878,-3.7737,-3.7766,-3.7766,-3.7798,-3.7803,-3.7825,-3.7832,-3.7841,-3.7847,-3.7872,-3.7886,-3.7887,-3.7892,-3.7907,-3.7921,-3.7921,-3.7927,-3.7939,-3.7937,-3.7885,-3.7878,-3.7871,-3.7864,-3.7941,-3.7941,-3.7991,-3.7992,-3.7992]}]]